Miscellaneous Local Product
Issued by NWS North Platte, NE

Home | Current Version | Previous Version | Text Only | Print | Product List | Glossary On
Versions: 1 2 3 4 5 6 7 8 9 10 11 12 13 14 15 16 17 18 19 20 21 22 23 24 25 26 27 28 29 30 31 32 33 34 35 36 37 38 39 40 41 42 43 44 45 46 47 48 49 50
000
AXUS43 KLBF 010210
MISLBF


WESTERN AND NORTH CENTRAL NEBRASKA HOURLY WEATHER ROUNDUP
NATIONAL WEATHER SERVICE NORTH PLATTE NE
900 PM CDT TUE SEP 30 2014

***STATIONS NOT REPORTING VARIABLES SUCH AS SKY/WEATHER OR
PRESSURE ARE PROVIDED BY THE NEBRASKA DEPARTMENT OF
ROADS...RAWS...AND APRS NETWORKS...AND ARE NOT UNDER
NATIONAL WEATHER SERVICE QUALITY CONTROL***

...OBSERVATIONS IN AND NEAR THE EASTERN PANHANDLE OF NEBRASKA...

CITY           SKY/WX    TMP DP  RH WIND       PRES   REMARKS
PINE RIDGE     MOCLDY    56  49  77 CALM      29.69R
CHADRON        CLOUDY    56  48  74 CALM      29.70R
ALLIANCE       PTCLDY    51  43  74 SW10      29.74R
SIDNEY         CLOUDY    55  47  74 W3        29.80R
WHITECLAY        N/A     51  48  87 SE6         N/A
RUSHVILLE        N/A     53  44  70 NW10        N/A
CRESCENT LAKE    N/A     57  40  54 W5          N/A
LISCO            N/A     59  43  55 W9          N/A
BIG SPRINGS      N/A     63  46  54 SW3         N/A
$$

...OBSERVATIONS IN NORTH CENTRAL NEBRASKA...

CITY           SKY/WX    TMP DP  RH WIND       PRES   REMARKS
VALENTINE      MOCLDY    59  45  59 NW3       29.68R
THEDFORD       MOCLDY    62  46  54 SW5       29.72S
AINSWORTH      MOCLDY    55  46  72 S7        29.69S
O`NEILL        MOCLDY    69  62  78 SE12      29.71R
ORD            CLEAR     67  57  70 S9        29.71R
BROKEN BOW     MOCLDY    56  48  74 CALM      29.72R
SPRINGVIEW       N/A     57  47  69 CALM        N/A
ROSE             N/A     72  49  43 E6          N/A
NEWPORT          N/A     58  48  67 CALM        N/A
SARGENT          N/A     63  47  55 CALM        N/A
COMSTOCK         N/A     71  62  73 S10         N/A
CHAMBERS         N/A     67  60  77 S5G13       N/A
EWING            N/A     65  62  89 CALM        N/A
$$

...OBSERVATIONS IN SOUTHWEST NEBRASKA AND FAR NORTHEAST COLORADO...

CITY           SKY/WX    TMP DP  RH WIND       PRES   REMARKS
WRAY           FAIR      64  43  47 CALM      29.77R
HOLYOKE        FAIR      59  50  72 SW3       29.77S
IMPERIAL       MOCLDY    61  46  57 CALM      29.75R
OGALLALA       CLOUDY    61  47  60 CALM      29.74S
NORTH PLATTE   MOCLDY    61  48  62 S7        29.72S
MCCOOK         PTCLDY    65  48  54 CALM      29.73R
LEXINGTON      PTCLDY    62  51  66 SE6       29.73R
PAXTON           N/A     64  49  59 S3          N/A
SUTHERLAND       N/A     68  44  41 S9          N/A
BRADY            N/A     62  48  60 CALM        N/A
GOTHENBURG       N/A     70  42  35 CALM        N/A
CALLAWAY         N/A     60  49  67 S5          N/A
$$

...SOME WEATHER OBSERVATIONS FROM AROUND THE REGION...

CITY           SKY/WX    TMP DP  RH WIND       PRES   REMARKS
DENVER         CLOUDY    61  35  37 W21G28    29.88R
LARAMIE        CLOUDY    46  35  65 SW17G24   29.92R
CHEYENNE       CLOUDY    53  37  54 SW14      29.88R
SCOTTSBLUFF    MOCLDY    60  42  51 W10       29.76R
RAPID CITY     PTCLDY    57  43  59 SW3       29.66R
PIERRE         CLEAR     61  50  67 SW12      29.57R
WINNER         FAIR      62  46  55 S7        29.65R
SIOUX FALLS    CLOUDY    65  61  87 SE18G26   29.73R
OMAHA          LGT RAIN  66  62  87 SE10      29.78F
GRAND ISLAND   CLEAR     63  59  87 SE7       29.75R
KANSAS CITY    PTCLDY    72  58  61 SE7       29.80R
WICHITA        MOCLDY    77  60  55 S15       29.71R
HAYS           MOCLDY    68  59  73 NE10      29.69R
LIBERAL        CLEAR     64  41  42 NW7       29.74R
GOODLAND       MOCLDY    61  47  59 S7        29.77S
$$



USA.gov is the U.S. government's official web portal to all federal, state and local government web resources and services.